Rickenbacker, OH

8:47 AM EDT on October 22, 2017 (GMT -0400)
Rickenbacker International

Weather History for KLCK - November, 2012

Change the Weather History Date:

Saturday, November 17, 2012

  Actual Average Record
Temperature  
Mean Temperature 44 °F -  
Max Temperature 58 °F 50 °F 67 °F (2016)
Min Temperature 30 °F 34 °F 14 °F (2014)
Degree Days  
Heating Degree Days 21    
Moisture  
Dew Point 28 °F    
Average Humidity 62    
Maximum Humidity 86    
Minimum Humidity 26    
Precipitation  
Precipitation 0.00 in - - ()
Sea Level Pressure  
Sea Level Pressure 30.51 in    
Wind  
Wind Speed 5 mph (NE)    
Max Wind Speed 12 mph    
Max Gust Speed 17 mph    
Visibility 8 miles    
Events      
Averages and records for this station are not official NWS values.
T = Trace of Precipitation, MM = Missing Value Source: NWS Daily Summary

Daily Weather History Graph

Daily Weather History Graph

Search for Another Location

Airport or City:

Trip Planner

Search our weather history database for the weather conditions in past years. The results will help you decide how hot, cold, wet, or windy it might be!

Date:

Astronomy

Nov. 17, 2012 Rise Set
Actual Time 7:19 AM EST 5:13 PM EST
Civil Twilight 6:50 AM EST 5:43 PM EST
Nautical Twilight 6:17 AM EST 6:15 PM EST
Astronomical Twilight 5:45 AM EST 6:47 PM EST
Moon 11:03 AM EST (11/17) 9:22 PM EST (11/17)
Length of Visible Light 10h 52m
Length of Day
9h 54m
Waxing Crescent, 20% of the Moon is Illuminated
Nov 17
Waxing Crescent
Nov 20
First Quarter
Nov 28
Full
Dec 6
Last Quarter
Dec 13
New

Hourly Weather History & Observations

Time (EST) Temp. Windchill Dew Point Humidity Pressure Visibility Wind Dir Wind Speed Gust Speed Precip Events Conditions
12:15 AM 38.1 °F 33.7 °F 30.7 °F 75% 30.49 in 10.0 mi NNE 5.8 mph - N/A   Clear
12:35 AM 37.2 °F 32.6 °F 30.2 °F 76% 30.49 in 10.0 mi NNE 5.8 mph - N/A   Clear
12:55 AM 35.4 °F 32.6 °F 29.3 °F 78% 30.49 in 7.0 mi North 3.5 mph - N/A   Clear
1:15 AM 33.4 °F 30.4 °F 27.9 °F 80% 30.49 in 7.0 mi NNE 3.5 mph - N/A   Clear
1:35 AM 32.7 °F 28.3 °F 27.7 °F 82% 30.49 in 7.0 mi NNE 4.6 mph - N/A   Clear
1:55 AM 32.2 °F 26.7 °F 27.1 °F 82% 30.49 in 7.0 mi NNE 5.8 mph - N/A   Clear
2:15 AM 32.4 °F 27.9 °F 27.1 °F 81% 30.49 in 7.0 mi NNE 4.6 mph - N/A   Clear
2:35 AM 31.1 °F 27.7 °F 26.4 °F 83% 30.49 in 7.0 mi NNE 3.5 mph - N/A   Clear
2:55 AM 32.4 °F 29.1 °F 27.5 °F 82% 30.50 in 7.0 mi NNE 3.5 mph - N/A   Clear
3:15 AM 34.0 °F - 28.9 °F 82% 30.50 in 7.0 mi Calm Calm - N/A   Clear
3:35 AM 34.0 °F - 28.9 °F 82% 30.49 in 5.0 mi Calm Calm - N/A   Haze
3:55 AM 32.0 °F 28.7 °F 27.1 °F 82% 30.50 in 5.0 mi NNE 3.5 mph - N/A   Clear
4:15 AM 33.3 °F 28.9 °F 28.6 °F 83% 30.50 in 7.0 mi NE 4.6 mph - N/A   Clear
4:35 AM 33.8 °F 29.6 °F 29.1 °F 83% 30.50 in 5.0 mi NNE 4.6 mph - N/A   Haze
4:55 AM 33.1 °F 28.7 °F 28.4 °F 83% 30.51 in 5.0 mi NNE 4.6 mph - N/A   Haze
5:15 AM 32.5 °F 27.1 °F 28.2 °F 84% 30.51 in 5.0 mi NNE 5.8 mph - N/A   Clear
5:35 AM 32.4 °F 29.1 °F 28.2 °F 85% 30.51 in 5.0 mi North 3.5 mph - N/A   Haze
5:55 AM 31.1 °F 27.7 °F 26.8 °F 84% 30.51 in 4.0 mi NE 3.5 mph - N/A   Clear
6:15 AM 30.0 °F 26.5 °F 26.1 °F 85% 30.52 in 4.0 mi NE 3.5 mph - N/A   Clear
6:35 AM 30.7 °F 27.3 °F 26.8 °F 85% 30.52 in 5.0 mi NNW 3.5 mph - N/A   Clear
6:55 AM 30.2 °F 26.7 °F 26.2 °F 85% 30.53 in 5.0 mi North 3.5 mph - N/A   Clear
7:15 AM 31.1 °F - 27.1 °F 85% 30.53 in 4.0 mi Calm Calm - N/A   Haze
7:35 AM 30.4 °F - 26.6 °F 86% 30.54 in 4.0 mi Calm Calm - N/A   Clear
7:55 AM 30.4 °F 26.9 °F 26.2 °F 85% 30.55 in 4.0 mi NNW 3.5 mph - N/A   Clear
8:15 AM 31.3 °F - 27.3 °F 85% 30.55 in 4.0 mi Calm Calm - N/A   Clear
8:35 AM 33.1 °F - 28.8 °F 84% 30.55 in 3.0 mi Calm Calm - N/A   Haze
8:55 AM 34.5 °F - 29.7 °F 82% 30.56 in 4.0 mi Calm Calm - N/A   Haze
9:15 AM 36.5 °F 33.9 °F 30.7 °F 80% 30.56 in 5.0 mi NNE 3.5 mph - N/A   Haze
9:35 AM 39.2 °F 34.2 °F 32.0 °F 75% 30.56 in 7.0 mi ENE 6.9 mph - N/A   Clear
9:55 AM 41.4 °F 37.6 °F 32.0 °F 69% 30.57 in 7.0 mi NE 5.8 mph - N/A   Clear
10:15 AM 42.8 °F 38.6 °F 32.0 °F 66% 30.57 in 10.0 mi NE 6.9 mph - N/A   Clear
10:35 AM 44.8 °F 40.4 °F 32.0 °F 61% 30.57 in 10.0 mi ENE 8.1 mph - N/A   Clear
10:55 AM 47.1 °F - 32.0 °F 56% 30.57 in 10.0 mi ENE 9.2 mph - N/A   Clear
11:15 AM 48.9 °F - 31.6 °F 51% 30.56 in 10.0 mi ENE 6.9 mph - N/A   Clear
11:35 AM 50.4 °F - 30.9 °F 47% 30.56 in 10.0 mi East 5.8 mph - N/A   Clear
12:55 PM 55.2 °F - 28.4 °F 36% 30.53 in 10.0 mi ENE 8.1 mph - N/A   Clear
1:15 PM 56.3 °F - 27.3 °F 33% 30.51 in 10.0 mi East 5.8 mph - N/A   Clear
1:35 PM 56.7 °F - 27.1 °F 32% 30.51 in 10.0 mi ENE 9.2 mph - N/A   Clear
1:55 PM 57.4 °F - 26.2 °F 30% 30.50 in 10.0 mi NE 8.1 mph - N/A   Clear
2:15 PM 58.1 °F - 25.2 °F 28% 30.49 in 10.0 mi ENE 9.2 mph - N/A   Clear
2:35 PM 58.5 °F - 25.0 °F 28% 30.49 in 10.0 mi East 8.1 mph - N/A   Clear
2:55 PM 58.6 °F - 24.8 °F 27% 30.49 in 10.0 mi ENE 10.4 mph - N/A   Clear
3:15 PM 58.3 °F - 24.1 °F 27% 30.48 in 10.0 mi East 10.4 mph - N/A   Clear
3:35 PM 58.3 °F - 23.4 °F 26% 30.48 in 10.0 mi ENE 11.5 mph - N/A   Clear
3:55 PM 57.9 °F - 23.2 °F 26% 30.48 in 10.0 mi East 11.5 mph - N/A   Clear
4:15 PM 57.2 °F - 23.9 °F 28% 30.49 in 10.0 mi ENE 11.5 mph 17.3 mph N/A   Clear
4:35 PM 56.1 °F - 23.9 °F 29% 30.48 in 10.0 mi ENE 9.2 mph - N/A   Clear
4:55 PM 54.3 °F - 25.5 °F 33% 30.49 in 10.0 mi ENE 6.9 mph - N/A   Clear
5:15 PM 52.2 °F - 26.1 °F 36% 30.49 in 10.0 mi ENE 5.8 mph - N/A   Clear
5:35 PM 50.4 °F - 26.8 °F 40% 30.49 in 10.0 mi NE 5.8 mph - N/A   Clear
5:55 PM 48.6 °F - 27.3 °F 44% 30.49 in 10.0 mi ENE 5.8 mph - N/A   Clear
6:15 PM 47.7 °F - 27.3 °F 45% 30.49 in 10.0 mi ENE 5.8 mph - N/A   Clear
6:35 PM 48.0 °F - 27.3 °F 45% 30.49 in 10.0 mi ENE 5.8 mph - N/A   Clear
6:55 PM 47.8 °F - 27.5 °F 45% 30.49 in 10.0 mi NE 6.9 mph - N/A   Clear
7:15 PM 45.5 °F 41.8 °F 27.7 °F 50% 30.49 in 10.0 mi NE 6.9 mph - N/A   Clear
7:35 PM 42.8 °F 38.0 °F 27.9 °F 56% 30.49 in 10.0 mi NE 8.1 mph - N/A   Clear
7:55 PM 43.3 °F 38.6 °F 27.7 °F 54% 30.50 in 10.0 mi NE 8.1 mph - N/A   Clear
8:15 PM 41.9 °F 37.5 °F 27.7 °F 57% 30.50 in 10.0 mi NE 6.9 mph - N/A   Clear
8:35 PM 39.9 °F 35.1 °F 27.5 °F 61% 30.50 in 10.0 mi NE 6.9 mph - N/A   Clear
8:55 PM 41.4 °F 36.8 °F 27.5 °F 58% 30.50 in 10.0 mi NE 6.9 mph - N/A   Clear
9:15 PM 41.4 °F 36.8 °F 27.3 °F 57% 30.50 in 10.0 mi NNE 6.9 mph - N/A   Clear
9:35 PM 38.1 °F 32.3 °F 26.8 °F 64% 30.49 in 10.0 mi NE 8.1 mph - N/A   Clear
9:55 PM 36.9 °F 30.7 °F 26.8 °F 67% 30.49 in 10.0 mi NE 8.1 mph - N/A   Clear
10:15 PM 36.9 °F 31.4 °F 27.1 °F 68% 30.49 in 10.0 mi NE 6.9 mph - N/A   Clear
10:35 PM 39.0 °F 34.8 °F 27.3 °F 63% 30.49 in 10.0 mi NE 5.8 mph - N/A   Clear
10:55 PM 40.5 °F 35.1 °F 27.3 °F 59% 30.48 in 10.0 mi NE 8.1 mph - N/A   Clear
11:15 PM 35.4 °F 29.7 °F 26.2 °F 69% 30.48 in 10.0 mi NNE 6.9 mph - N/A   Clear
11:35 PM 37.8 °F 35.3 °F 27.1 °F 66% 30.47 in 10.0 mi NNW 3.5 mph - N/A   Clear
11:55 PM 39.6 °F 37.4 °F 27.7 °F 62% 30.47 in 10.0 mi NNE 3.5 mph - N/A   Clear